STARLINK-1599 (46143 NORAD) Tracking and Keplerian Element Data

This shows tracking and keplerian element data for the satellite.

Feedback or suggestion? Click here.




ElementValue
Catalog46143
NameSTARLINK-1599
Epoch Orbit179
Epoch Day335.91670139
Epoch Year2020
RAAN297.248
Inclination53.0017
Eccentricity0.0001471
Argument of Perigee77.0078
Mean Anonmoly212.7653
Mean Motion15.05580416
Decay Rate0.00011826
L11 46143U 20057AC 20335.91670139 .00011826 00000-0 82944-3 0 9999
L22 46143 53.0017 297.2480 0001471 77.0078 212.7653 15.05580416 1798

Live tracking and technical data element details for STARLINK-1599 (NORAD 46143). STARLINK-1599 can be tracked NOW for your location showing map with azimuth and elevation plus other details from your city location.

Track the satellite on the map from your city or location and see movement details for azimuth, elevation, latitude, longitude, range, height, and movement on the map or in text.







IsCatalogInMostPopularTable: catalog: 46143, numindb: 14
Update: records affected: 1



GetName: 46143 STARLINK-1599

Hit Count: updated at: Tue, 01 Dec 2020 21:19:45 GMT